Change the Weather History Date:

Sunday, October 13, 2013

  Actual Average Record
Temperature  
Mean Temperature 55 °F 47 °F  
Max Temperature 70 °F 57 °F 82 °F (1983)
Min Temperature 39 °F 37 °F 22 °F (1951)
Degree Days  
Heating Degree Days 10 18  
Month to date heating degree days 114 202  
Since 1 July heating degree days 415 502  
Cooling Degree Days 0 0  
Month to date cooling degree days 0 0  
Year to date cooling degree days 418 361  
Growing Degree Days 4 (Base 50)    
Moisture  
Dew Point 44 °F    
Average Humidity 77    
Maximum Humidity 100    
Minimum Humidity 53    
Precipitation  
Precipitation 0.00 in 0.11 in 1.96 in (2005)
Month to date precipitation 1.02 1.44  
Year to date precipitation 29.58 27.63  
Sea Level Pressure  
Sea Level Pressure 30.30 in    
Wind  
Wind Speed 2 mph (ENE)    
Max Wind Speed 9 mph    
Max Gust Speed 12 mph    
Visibility 5 miles    
Events Fog    
T = Trace of Precipitation, MM = Missing Value Source: NWS Daily Summary

Daily Weather History Graph

Daily Weather History Graph

Search for Another Location

Airport or City:

Trip Planner

Search our weather history database for the weather conditions in past years. The results will help you decide how hot, cold, wet, or windy it might be!

Date:

Astronomy

Oct. 13, 2013 Rise Set
Actual Time 7:12 AM EDT 6:17 PM EDT
Civil Twilight 6:43 AM EDT 6:47 PM EDT
Nautical Twilight 6:09 AM EDT 7:20 PM EDT
Astronomical Twilight 5:35 AM EDT 7:54 PM EDT
Moon 3:19 PM EDT (10/13) 1:05 AM EDT (10/13)
Length of Visible Light 12h 03m
Length of Day
11h 04m
Waxing Gibbous, 69% of the Moon is Illuminated
Oct 13
Waxing Gibbous
Oct 18
Full
Oct 26
Last Quarter
Nov 3
New
Nov 10
First Quarter

Hourly Weather History & Observations

Time (EDT) Temp. Windchill Dew Point Humidity Pressure Visibility Wind Dir Wind Speed Gust Speed Precip Events Conditions
12:53 AM 45.0 °F - 42.1 °F 90% 30.28 in 9.0 mi Calm Calm - N/A   Clear
1:44 AM 44.6 °F - 42.8 °F 93% 30.29 in 2.5 mi Calm Calm - N/A   Partly Cloudy
1:46 AM 44.6 °F - 42.8 °F 93% 30.29 in 0.8 mi Calm Calm - N/A   Mist
1:53 AM 42.1 °F - 41.0 °F 96% 30.30 in 0.2 mi Calm Calm - N/A Fog Fog
2:02 AM 42.8 °F - 41.0 °F 93% 30.29 in 1.2 mi Calm Calm - N/A   Partly Cloudy
2:11 AM 42.8 °F - 41.0 °F 93% 30.29 in 0.8 mi Calm Calm - N/A   Mist
2:15 AM 42.8 °F - 41.0 °F 93% 30.29 in 1.0 mi Calm Calm - N/A   Clear
2:19 AM 42.8 °F - 41.0 °F 93% 30.29 in 2.5 mi Calm Calm - N/A   Clear
2:26 AM 42.8 °F - 41.0 °F 93% 30.29 in 10.0 mi Calm Calm - N/A   Clear
2:53 AM 42.1 °F - 41.0 °F 96% 30.30 in 7.0 mi Calm Calm - N/A   Clear
3:48 AM 42.8 °F 41.1 °F 39.2 °F 87% 30.30 in 10.0 mi ENE 3.5 mph - N/A   Partly Cloudy
3:53 AM 41.0 °F - 39.0 °F 93% 30.31 in 10.0 mi Calm Calm - N/A   Clear
4:10 AM 42.8 °F - 39.2 °F 87% 30.30 in 5.0 mi Calm Calm - N/A   Partly Cloudy
4:13 AM 41.0 °F - 39.2 °F 93% 30.30 in 1.8 mi Calm Calm - N/A   Partly Cloudy
4:19 AM 39.2 °F - 39.2 °F 100% 30.30 in 1.0 mi Calm Calm - N/A   Mist
4:22 AM 39.2 °F - 37.4 °F 93% 30.30 in 1.5 mi Calm Calm - N/A   Scattered Clouds
4:28 AM 39.2 °F - 37.4 °F 93% 30.30 in 3.0 mi Calm Calm - N/A   Scattered Clouds
4:53 AM 41.0 °F - 39.0 °F 93% 30.31 in 1.2 mi Calm Calm - N/A   Scattered Clouds
4:57 AM 41.0 °F - 39.2 °F 93% 30.30 in 0.8 mi Calm Calm - N/A   Mist
5:07 AM 39.2 °F - 37.4 °F 93% 30.30 in 1.5 mi Calm Calm - N/A   Mostly Cloudy
5:09 AM 39.2 °F - 37.4 °F 93% 30.30 in 4.0 mi Calm Calm - N/A   Mostly Cloudy
5:15 AM 39.2 °F - 39.2 °F 100% 30.30 in 1.2 mi Calm Calm - N/A   Overcast
5:23 AM 41.0 °F - 39.2 °F 93% 30.30 in 0.8 mi Calm Calm - N/A   Mist
5:26 AM 42.8 °F - 39.2 °F 87% 30.30 in 1.5 mi Calm Calm - N/A   Overcast
5:31 AM 41.0 °F - 39.2 °F 93% 30.31 in 0.8 mi Calm Calm - N/A   Mist
5:53 AM 39.9 °F - 39.9 °F 100% 30.32 in 0.2 mi Calm Calm - N/A Fog Fog
6:53 AM 41.0 °F - 39.9 °F 96% 30.34 in 0.2 mi Calm Calm - N/A Fog Fog
7:53 AM 42.1 °F - 41.0 °F 96% 30.37 in 0.2 mi Calm Calm - N/A Fog Fog
8:53 AM 46.9 °F - 46.0 °F 97% 30.37 in 0.2 mi Calm Calm - N/A Fog Fog
9:19 AM 50.0 °F - 48.2 °F 94% 30.35 in 1.5 mi East 4.6 mph - N/A   Overcast
9:24 AM 50.0 °F - 48.2 °F 94% 30.35 in 3.0 mi East 4.6 mph - N/A   Mostly Cloudy
9:36 AM 51.8 °F - 50.0 °F 94% 30.36 in 6.0 mi East 5.8 mph - N/A   Scattered Clouds
9:53 AM 52.0 °F - 51.1 °F 97% 30.36 in 8.0 mi East 3.5 mph - N/A   Clear
10:53 AM 60.1 °F - 51.1 °F 72% 30.35 in 10.0 mi Calm Calm - N/A   Clear
11:53 AM 64.0 °F - 52.0 °F 65% 30.35 in 10.0 mi Variable 4.6 mph - N/A   Clear
12:53 PM 66.0 °F - 51.1 °F 59% 30.32 in 10.0 mi Variable 3.5 mph - N/A   Clear
1:53 PM 69.1 °F - 52.0 °F 54% 30.29 in 10.0 mi North 6.9 mph - N/A   Clear
2:53 PM 69.1 °F - 52.0 °F 54% 30.27 in 10.0 mi NNE 4.6 mph - N/A   Clear
3:53 PM 69.1 °F - 52.0 °F 54% 30.27 in 10.0 mi NE 6.9 mph - N/A   Clear
4:53 PM 68.0 °F - 50.0 °F 52% 30.26 in 10.0 mi East 4.6 mph - N/A   Partly Cloudy
5:53 PM 66.0 °F - 50.0 °F 56% 30.26 in 10.0 mi East 5.8 mph - N/A   Clear
6:53 PM 62.1 °F - 51.1 °F 67% 30.26 in 10.0 mi East 4.6 mph - N/A   Scattered Clouds
7:53 PM 60.1 °F - 51.1 °F 72% 30.26 in 10.0 mi Calm Calm - N/A   Overcast
8:53 PM 57.9 °F - 52.0 °F 81% 30.27 in 10.0 mi Calm Calm - N/A   Overcast
9:53 PM 59.0 °F - 53.1 °F 81% 30.27 in 10.0 mi Calm Calm - N/A   Overcast
10:53 PM 57.9 °F - 53.1 °F 84% 30.27 in 10.0 mi Calm Calm - N/A   Overcast
11:53 PM 59.0 °F - 53.1 °F 81% 30.26 in 10.0 mi Calm Calm - N/A   Overcast